Location: *
(35.8942°N, 23.3025°E)
Time: 23:36:58
(UTC+00:00)

Gbstr 26 Del rocket - Pass Details

Date: 21 September 2021
Orbit: 492 x 1263 km, 51.8° (Epoch: 22 October)

Event Time Altitude Azimuth Distance (km) Brightness Sun altitude
Rises 03:09:58 0° 311° (NW) 4,133 6.9 -13.7°
Reaches altitude 10° 03:12:58 10° 313° (NW) 3,098 6.3 -13.1°
Maximum altitude 03:20:33 78° 40° (NE) 1,065 4.3 -11.6°
Drops below altitude 10° 03:26:47 10° 127° (SE) 2,572 6.9 -10.3°
Sets 03:29:04 0° 129° (SE) 3,397 7.6 -9.9°
